Theta_e
301 301 301 301 302 301 301 301 301 302 303 306 313 317 318 318 310 306 307 317 317 318 318 318 319 319 319 319 320 319 321 322 322 321 322 323 323 327 330 331 330 334 336 335 336 337 337 333 333 337 335 335 333 334
301 301 301 301 302 302 302 301 301 302 303 308 313 315 316 315 306 303 304 316 316 316 316 316 317 318 318 319 319 320 321 321 324 323 324 328 329 328 330 328 331 333 331 332 332 333 334 332 334 334 334 335 334 334
302 301 300 301 301 302 302 302 301 301 303 309 313 314 316 311 303 304 310 315 316 315 316 317 317 317 316 315 317 318 318 318 320 321 321 325 329 326 328 328 329 328 324 330 332 331 332 333 332 333 334 334 332 327
302 301 300 300 301 301 301 302 302 302 304 310 313 315 314 306 305 304 309 313 315 314 316 318 319 319 319 318 317 317 317 318 319 320 321 322 324 323 325 325 326 327 330 329 331 328 328 330 333 333 330 330 330 332
301 300 300 300 301 301 301 302 302 302 305 311 313 314 312 305 302 305 309 313 314 315 317 317 318 320 318 318 318 318 317 317 318 319 319 320 319 321 321 322 322 327 329 328 328 328 331 332 332 329 325 324 322 328
301 300 300 300 301 301 301 301 302 303 308 311 311 313 308 301 302 309 312 314 314 315 314 318 317 317 318 316 315 315 316 317 318 319 319 319 319 319 321 322 323 324 325 325 326 325 331 328 329 328 327 325 326 327
302 301 300 300 300 301 301 302 302 306 310 311 312 312 306 305 308 312 314 314 315 314 315 319 319 317 317 316 317 317 317 317 317 318 318 318 319 318 320 321 321 320 324 324 324 327 330 328 329 328 327 324 328 328
302 302 300 301 300 301 301 302 303 307 310 311 312 305 305 309 309 312 313 310 312 315 316 319 319 319 316 317 318 317 318 317 317 317 317 318 318 318 320 320 320 320 320 321 321 325 329 327 330 325 324 326 328 325
302 301 300 301 301 301 301 302 305 307 311 309 308 310 310 311 310 312 314 313 313 314 316 318 318 322 318 317 318 317 316 318 316 318 317 317 320 321 322 322 321 322 324 323 325 324 326 326 327 322 326 327 328 326
302 300 300 301 301 301 301 303 308 310 310 307 306 308 311 310 313 312 312 314 314 314 314 315 316 319 319 318 320 319 317 318 320 320 319 321 321 326 329 329 327 326 324 324 324 326 326 326 328 327 326 325 326 326
300 300 300 301 301 301 302 305 308 309 306 308 309 311 314 312 312 313 314 314 315 316 316 315 315 318 318 320 320 319 321 323 324 322 323 322 328 327 327 331 331 327 326 324 326 326 322 324 325 328 325 325 325 326
300 301 301 301 302 301 303 306 307 308 307 310 311 312 311 312 313 314 315 315 317 319 317 317 316 317 318 318 320 321 323 323 324 322 325 327 327 321 321 327 331 327 325 325 324 321 321 323 324 326 326 328 329 327
301 301 301 301 301 302 305 306 305 308 309 311 311 311 312 313 315 315 317 318 318 317 318 315 318 317 317 318 319 320 322 326 323 326 324 329 328 326 327 326 331 330 328 328 327 324 326 324 329 329 328 328 327 326
302 302 302 302 302 303 306 305 308 306 311 311 313 315 316 316 317 317 318 318 318 318 317 318 319 318 318 318 319 320 320 323 326 325 326 328 328 328 329 328 328 329 328 324 327 327 327 326 326 326 325 324 323 322
302 302 302 302 303 306 308 305 307 310 309 313 315 317 317 316 317 317 317 319 319 319 319 320 321 319 318 319 319 320 322 323 326 327 325 325 327 326 327 326 327 327 327 327 326 325 324 324 324 323 323 323 323 323
301 301 302 304 307 306 303 305 307 309 309 312 315 317 317 317 317 317 318 318 318 319 319 320 322 320 320 319 322 322 323 327 326 319 322 324 326 326 325 324 324 325 326 326 324 325 324 323 324 323 323 324 324 323
304 305 306 307 307 307 305 306 308 308 308 314 316 316 317 318 317 317 317 318 319 320 320 319 320 318 319 320 323 324 324 323 321 323 322 326 325 325 325 324 324 324 324 324 322 323 323 323 324 324 325 323 323 323
306 307 307 306 306 306 305 307 308 308 312 313 316 316 318 318 319 319 317 318 318 317 320 322 320 319 320 322 324 323 321 321 320 320 325 325 324 324 324 323 324 323 322 319 320 323 323 324 324 324 322 322 322 321
307 306 305 305 306 308 308 308 309 313 315 314 315 316 315 318 318 318 318 320 316 314 316 320 321 323 322 319 319 319 318 318 317 321 323 324 324 323 324 323 323 323 320 318 318 319 320 322 324 323 323 321 320 319
306 306 306 306 309 310 311 311 311 314 314 314 315 316 317 318 318 318 317 318 319 316 317 321 322 320 319 318 318 319 320 319 320 322 324 322 321 322 323 322 320 319 320 320 319 318 320 321 320 321 320 319 319 319
305 306 307 308 310 311 311 312 313 314 314 315 315 316 317 317 317 317 317 317 318 319 319 319 320 320 320 320 320 320 321 320 322 323 322 322 321 320 319 319 320 319 320 320 319 319 320 321 320 318 318 320 319 319
306 306 308 309 311 312 312 313 313 314 314 314 315 316 317 317 317 316 317 317 318 318 319 319 320 319 317 321 320 320 321 322 323 323 319 319 318 319 318 318 317 321 319 319 318 318 319 320 318 318 319 319 318 318
308 309 310 310 310 309 312 314 314 314 315 314 315 315 316 316 316 317 316 317 317 319 317 318 319 318 318 317 319 321 320 321 320 322 321 319 317 318 318 321 321 321 320 320 320 320 319 320 318 317 318 318 319 320
308 309 311 311 310 311 313 314 314 314 314 314 315 316 316 317 317 315 316 317 319 319 319 319 318 317 319 319 320 321 321 320 319 319 317 317 318 318 319 319 319 318 318 318 317 318 318 318 318 318 319 319 318 318
306 309 309 306 312 312 313 313 313 314 315 315 315 316 317 316 317 317 319 319 318 318 318 319 319 319 320 320 320 321 322 319 318 319 319 319 318 317 318 316 317 316 316 316 316 316 316 316 317 318 318 318 317 316
307 310 310 312 312 313 313 313 315 315 315 315 317 317 314 315 315 315 313 315 316 316 318 320 320 321 321 319 320 320 316 320 320 318 318 317 317 316 315 315 315 312 312 314 312 312 312 312 312 313 313 313 313 313
310 311 312 313 313 313 314 314 314 316 317 318 317 314 314 313 312 312 313 316 317 319 318 317 318 319 320 319 320 320 320 321 320 318 316 316 314 314 313 313 312 310 311 311 309 309 309 308 309 308 309 309 310 309
311 313 313 314 314 314 314 315 316 316 316 315 314 315 315 316 317 315 317 320 317 316 318 319 317 316 319 318 318 317 315 316 318 317 319 316 314 313 312 311 310 309 309 308 307 308 307 307 307 308 308 308 308 307
312 313 313 313 314 315 315 315 314 313 313 313 314 314 314 312 315 317 317 318 317 318 318 317 317 317 316 316 315 315 315 314 314 314 314 314 313 312 310 309 309 308 308 308 307 307 306 307 307 307 307 307 306 305
312 313 313 314 315 314 313 314 313 313 314 314 314 315 316 315 315 315 316 317 317 316 316 315 315 315 315 315 314 314 313 313 312 312 311 311 311 310 308 308 308 308 308 308 308 307 306 307 306 306 305 304 302 301
312 313 313 313 313 312 312 313 314 315 315 316 315 315 315 315 315 314 314 314 314 314 314 314 313 314 314 314 313 313 312 310 309 308 307 308 307 306 306 307 307 307 307 307 307 306 305 304 303 303 302 300 299 299
312 313 312 312 311 312 314 314 314 315 314 315 315 315 315 315 314 313 313 313 314 314 313 314 314 313 312 312 312 310 309 307 306 305 303 303 303 303 304 305 306 307 307 306 305 304 303 302 301 301 300 299 298 298
315 314 313 313 313 315 317 317 317 317 317 316 315 315 314 314 314 313 313 313 312 313 313 313 313 312 310 309 309 310 309 308 307 306 305 303 302 302 302 302 304 304 305 304 304 303 302 301 300 299 299 298 298 297
Wind_Speed
23 21 21 20 20 19 20 20 19 20 21 19 19 18 16 14 12 13 10 8 12 17 26 23 19 18 16 13 8 11 9 14 9 10 10 10 11 4 5 2 6 4 3 6 1 7 4 16 9 6 2 5 3 4
24 22 22 20 19 18 18 19 18 19 20 18 18 16 15 15 13 13 11 4 9 15 25 20 20 19 18 19 19 18 15 10 7 6 8 6 10 4 4 6 5 3 3 2 8 4 13 15 7 3 3 5 10 7
25 23 22 21 19 18 17 17 18 18 20 18 17 16 16 16 15 15 9 8 9 15 25 25 22 18 20 22 17 16 16 13 13 11 10 8 12 6 6 8 3 3 7 6 11 3 3 1 1 4 7 13 12 4
23 22 20 19 19 19 18 16 16 18 19 19 18 16 12 13 14 15 13 5 9 8 8 10 3 7 10 11 14 18 20 18 13 12 14 9 11 12 9 6 5 7 16 4 4 9 9 9 5 0 5 12 16 8
20 21 21 19 18 18 18 15 16 18 19 19 15 14 13 13 12 9 12 11 12 7 10 20 23 13 9 11 11 13 13 14 17 16 8 10 16 14 12 11 9 7 2 8 3 3 4 5 4 2 7 20 15 17
22 21 20 19 18 18 17 15 14 17 19 17 17 16 15 13 15 11 4 8 10 7 6 4 8 9 9 9 9 11 15 15 16 18 12 16 19 12 7 9 4 4 5 12 13 5 7 6 5 5 11 15 4 4
23 22 19 19 18 17 15 14 12 17 19 12 14 15 16 16 18 10 3 3 11 9 5 6 7 13 8 9 8 9 12 13 14 18 19 18 18 9 9 11 16 15 15 16 7 3 8 5 5 12 13 9 8 5
23 22 20 19 17 16 15 13 14 18 15 16 14 14 14 15 13 14 3 1 10 5 6 5 8 10 12 9 9 11 12 13 16 16 19 15 18 18 9 13 16 10 8 10 11 7 7 5 19 16 7 8 4 10
22 21 19 18 16 16 14 12 18 21 14 12 17 16 15 10 11 8 9 9 7 5 5 7 9 1 5 13 12 9 9 6 13 11 15 13 11 7 10 19 13 6 9 9 8 10 9 4 17 12 16 23 14 8
22 20 19 18 15 15 14 17 21 16 19 21 22 10 6 11 9 8 6 7 7 9 11 12 19 8 13 13 10 5 9 7 7 12 16 11 12 8 14 12 11 12 16 13 17 8 8 8 4 11 10 7 9 8
21 20 18 17 16 16 15 21 19 21 27 22 10 6 8 16 8 5 6 7 10 5 10 14 21 13 8 6 3 6 4 5 7 3 6 6 3 6 14 10 20 14 14 13 10 9 12 7 22 2 14 5 7 7
19 18 18 17 15 16 20 21 27 36 24 14 11 11 16 6 6 5 5 6 7 5 6 9 12 17 6 1 5 3 1 1 3 10 5 1 2 4 9 19 25 9 8 3 2 15 1 30 33 10 9 9 10 7
18 18 18 18 18 17 25 26 37 24 21 17 6 6 6 5 3 6 9 6 5 5 5 10 6 9 7 3 6 4 3 3 9 4 3 1 3 6 4 9 15 17 15 6 10 18 20 24 21 14 8 7 5 5
18 18 17 18 18 22 22 36 34 31 9 6 7 6 6 6 7 8 9 6 7 8 12 9 2 7 9 6 4 4 2 2 2 2 1 2 4 3 5 8 9 13 19 23 19 13 10 11 11 8 7 5 7 6
18 16 16 18 24 25 30 38 34 14 2 3 4 4 8 12 10 8 6 3 6 4 5 15 6 8 4 4 5 1 3 2 1 3 1 4 3 6 6 7 10 10 8 6 8 9 8 6 4 4 5 5 4 6
17 16 20 26 25 29 34 33 24 9 3 3 4 6 8 12 5 7 8 6 7 8 3 2 4 5 7 3 2 3 4 4 3 4 15 8 2 5 6 8 10 10 10 9 7 7 6 0 3 2 3 5 7 7
19 15 22 28 19 27 32 33 5 4 3 4 5 8 8 12 3 6 12 13 8 5 6 1 5 4 3 2 5 4 2 2 8 7 6 6 6 8 8 9 10 11 10 8 6 4 3 3 2 3 3 5 6 6
14 26 27 29 36 29 27 8 4 6 7 13 7 14 15 3 5 8 9 6 2 3 3 4 8 5 2 3 3 3 9 7 9 10 10 7 7 9 11 10 7 5 5 9 9 8 5 9 5 1 4 3 9 10
27 29 37 41 29 10 5 8 5 4 5 5 3 4 4 1 4 3 2 11 7 4 11 7 3 5 2 5 4 8 9 12 11 9 9 8 8 9 9 6 3 2 4 3 6 4 13 11 9 4 5 4 8 10
34 36 31 30 8 4 4 4 5 5 2 10 11 6 3 5 5 3 2 6 15 30 13 1 5 11 10 11 10 11 10 9 9 11 8 6 7 7 9 6 6 6 5 4 4 7 7 6 2 6 6 7 8 8
31 32 25 13 5 3 3 4 2 4 2 5 6 6 3 3 2 3 2 1 1 2 6 10 7 9 11 10 9 7 8 8 7 5 6 6 9 5 7 5 5 4 4 1 2 5 8 12 7 7 9 12 12 12
30 24 16 7 1 1 1 1 1 2 0 3 6 3 1 2 2 3 5 3 3 6 8 9 8 4 9 8 7 6 6 6 5 5 2 7 10 9 10 5 3 2 8 9 8 9 14 9 10 11 14 15 15 15
20 12 4 1 1 2 1 1 2 1 1 5 3 4 3 3 2 1 2 2 3 5 3 6 5 4 3 2 2 2 4 3 5 5 2 4 4 2 7 11 11 11 11 12 9 9 12 14 17 8 15 14 13 14
6 1 0 2 2 1 3 1 2 2 2 2 3 1 2 2 1 1 2 4 7 7 8 7 6 6 2 1 6 5 8 6 6 7 10 8 3 5 6 9 11 14 12 9 11 10 10 11 13 12 13 12 14 14
1 2 1 3 0 3 4 4 4 3 2 2 3 2 3 4 2 3 4 6 10 11 10 8 6 6 1 3 4 4 5 7 11 7 6 2 7 9 8 11 14 4 12 12 13 13 15 13 12 12 11 13 14 15
2 2 2 1 3 2 3 3 2 3 3 1 6 5 6 5 6 3 4 7 9 8 6 5 1 3 7 6 5 11 10 2 10 11 8 7 6 9 11 11 10 12 13 12 13 14 14 14 14 14 13 15 15 12
2 2 1 1 1 4 3 6 6 5 4 4 4 3 3 2 2 4 5 4 4 7 11 15 14 13 10 7 10 14 10 12 10 9 11 10 9 9 11 11 10 13 10 11 13 12 13 14 13 13 13 13 13 14
2 3 3 5 4 6 4 3 4 3 4 5 4 3 3 6 4 10 5 8 6 11 10 12 12 15 12 12 13 15 16 10 9 5 3 6 10 10 10 10 10 12 9 11 11 10 13 11 11 12 13 13 13 13
2 3 5 6 6 6 9 6 4 4 5 5 3 3 5 6 10 9 11 14 14 14 13 15 11 7 8 9 10 9 11 11 9 8 9 9 10 11 11 11 11 11 10 11 11 13 15 10 10 10 12 12 12 11
5 6 3 10 10 5 7 6 6 6 10 10 10 7 8 6 15 15 11 11 12 14 13 11 11 8 8 8 11 11 11 11 11 9 11 12 9 9 10 11 11 11 11 10 10 12 14 11 10 10 12 12 14 13
2 3 7 8 5 4 8 11 9 9 9 12 14 14 10 9 13 12 11 10 10 10 9 10 10 10 12 10 8 6 9 9 9 9 5 7 7 9 10 10 10 11 10 10 10 11 13 11 11 12 13 14 15 15
2 3 7 3 4 10 9 9 12 14 10 3 1 3 6 6 10 9 9 9 9 10 9 9 9 8 7 8 7 7 6 8 11 11 11 11 10 10 10 9 8 10 10 9 9 11 11 12 12 13 13 14 15 16
16 19 14 9 5 3 5 6 5 5 5 5 5 4 4 10 9 6 8 8 7 7 8 8 6 7 8 8 8 5 7 14 13 16 19 17 15 10 11 10 9 9 9 9 9 10 10 11 11 12 13 14 15 17
Wind_Direction
270 273 276 276 272 265 266 261 253 247 240 237 243 246 246 246 235 243 221 257 255 271 278 273 284 286 277 263 267 301 307 233 258 252 267 277 268 324 289 4 277 319 292 298 149 231 273 3 17 16 345 323 345 59
263 267 270 271 271 266 267 264 254 244 233 228 237 239 246 236 228 231 228 247 271 257 267 289 272 262 260 262 277 285 284 300 318 316 341 316 311 280 6 301 108 262 102 300 315 333 30 351 80 45 337 351 359 45
259 264 265 264 266 265 264 264 256 243 227 222 232 236 245 228 220 224 215 250 285 278 287 271 265 264 252 243 238 261 259 285 289 309 297 288 294 313 262 245 327 94 192 196 286 8 113 202 356 346 14 8 26 98
253 256 264 262 262 265 263 260 258 236 218 216 226 232 235 216 216 214 206 274 266 286 282 294 232 250 249 231 234 238 248 263 284 283 283 282 284 296 290 322 265 248 183 241 44 334 317 7 28 22 338 12 12 330
250 257 258 257 260 264 261 257 255 232 208 214 218 230 219 212 207 217 214 235 246 261 308 300 298 267 232 210 228 237 245 252 250 259 238 246 262 279 289 289 285 60 93 311 235 281 83 21 313 37 37 56 49 287
250 251 253 254 260 261 260 254 253 212 202 211 220 224 213 200 196 191 238 227 232 255 285 283 274 231 229 235 237 239 237 232 240 247 263 264 269 285 280 278 277 116 193 276 296 319 118 119 158 132 86 122 122 30
246 247 254 249 254 255 253 251 246 198 199 203 214 211 200 199 181 177 160 156 190 202 253 258 251 198 217 219 240 220 209 221 229 235 246 265 272 262 254 262 276 297 230 242 221 250 136 57 221 158 174 187 201 269
243 242 248 242 246 246 239 238 206 195 199 200 207 180 176 164 199 210 258 255 179 199 256 272 269 193 186 206 208 210 211 219 238 244 254 238 248 239 249 264 263 290 293 275 266 241 207 175 148 83 254 209 226 108
238 236 239 237 241 232 225 223 186 192 179 175 150 145 160 179 190 216 208 211 188 247 277 273 257 73 210 239 218 176 227 226 234 228 236 249 245 239 232 229 247 266 315 268 272 230 208 175 150 126 221 243 191 121
231 230 226 229 228 213 212 192 178 179 168 157 154 148 189 199 164 190 184 194 210 218 228 261 280 276 228 218 206 204 202 239 249 214 225 219 239 62 24 6 327 278 271 283 294 237 216 235 100 174 243 176 122 85
219 216 218 218 209 205 198 184 176 171 153 162 166 186 130 151 152 201 212 211 199 231 219 234 232 255 244 251 264 224 173 334 276 258 251 239 187 1 344 336 287 270 267 254 85 57 3 7 249 136 325 182 149 129
207 207 207 206 201 197 189 183 164 159 162 170 163 141 138 182 193 213 203 212 206 237 191 210 205 227 267 277 270 6 120 83 305 335 303 112 316 261 333 301 330 306 249 208 165 1 258 253 279 179 99 99 97 107
200 202 200 197 194 197 182 174 163 164 152 145 138 166 178 193 177 208 200 213 210 203 183 201 182 192 226 261 249 270 201 167 152 138 329 3 161 203 207 313 354 12 28 51 134 127 196 246 76 66 79 59 47 39
193 193 192 187 195 189 176 170 164 170 172 175 179 175 214 190 212 216 222 233 180 202 167 174 260 216 204 173 248 263 251 55 100 90 90 231 168 21 59 340 3 19 27 34 -0 56 53 48 47 37 34 20 19 18
181 184 182 190 178 177 172 164 168 178 109 248 224 219 211 225 236 218 184 141 162 138 191 151 224 240 199 221 215 302 283 301 68 85 172 131 58 38 33 357 342 338 359 3 29 29 21 40 60 73 44 41 28 22
168 169 172 164 165 163 163 170 174 173 262 273 248 255 254 239 211 199 165 146 159 198 74 333 262 115 237 202 273 249 359 44 56 34 273 127 69 3 352 340 335 330 329 327 344 330 314 266 77 43 13 21 22 349
137 154 156 152 159 163 165 172 183 117 244 253 256 245 262 284 192 250 148 179 175 251 238 175 239 183 296 230 142 25 54 175 213 120 72 53 8 341 328 318 316 322 322 324 289 305 7 13 320 354 36 3 335 310
139 149 157 158 145 150 160 145 136 204 240 228 243 232 207 203 168 114 131 187 163 47 47 281 294 237 39 80 80 91 286 137 70 35 56 34 359 337 321 299 299 314 328 327 306 292 310 306 290 257 41 335 299 302
147 140 140 138 134 98 116 170 227 263 244 351 273 84 96 166 141 102 130 113 47 241 324 310 277 69 352 59 23 298 11 24 4 32 29 23 8 353 343 331 304 290 303 354 41 38 323 315 315 354 324 334 320 334
139 134 143 150 127 132 140 178 210 258 34 201 197 169 154 133 146 190 235 201 187 175 208 306 50 17 93 69 51 37 27 10 4 12 10 18 14 5 12 28 82 74 82 89 9 271 315 2 336 251 300 353 343 345
140 144 135 128 120 169 186 152 231 257 356 104 140 167 109 103 304 190 207 289 76 39 27 51 83 66 56 55 49 33 36 14 15 18 13 15 2 11 74 91 76 58 4 53 101 61 1 333 341 350 349 9 360 329
130 140 135 119 326 10 149 204 281 145 317 160 139 100 242 118 163 97 241 251 94 25 67 75 70 353 57 48 19 17 10 6 20 21 62 71 72 101 100 70 358 2 65 37 33 14 14 21 359 341 356 338 322 333
104 100 99 161 74 59 138 219 234 29 191 171 151 130 212 171 114 205 247 107 74 94 67 44 8 339 18 13 355 6 14 7 29 29 82 126 128 81 340 345 345 19 58 41 34 29 3 353 2 0 340 344 339 337
54 58 299 201 130 157 155 201 108 129 96 175 173 129 58 63 319 265 246 92 52 35 43 22 343 318 281 17 72 97 50 49 65 88 63 52 333 5 27 17 46 48 29 16 13 8 2 359 5 358 353 348 342 338
330 2 297 289 51 135 161 167 201 151 156 132 169 135 49 347 24 350 32 24 4 359 328 310 296 291 339 159 120 80 93 110 103 76 80 141 86 45 67 37 50 77 358 5 6 2 7 19 7 356 -0 358 354 347
54 74 36 34 149 138 132 128 112 165 180 133 50 66 25 30 18 6 331 339 354 3 349 343 315 149 131 127 98 76 129 55 107 57 66 84 64 40 30 28 19 10 9 5 1 357 353 350 346 343 341 346 349 3
39 51 101 97 32 99 122 109 91 71 48 43 60 48 51 47 256 250 271 344 349 37 82 74 76 87 85 79 63 62 80 51 69 47 50 52 49 42 29 24 17 360 3 1 0 358 356 354 354 353 351 351 351 358
30 357 89 107 52 61 69 100 59 55 32 37 72 44 25 5 350 331 354 41 123 117 99 95 93 82 49 61 73 49 52 58 66 34 343 47 51 38 23 13 12 14 5 3 9 3 2 -0 1 4 6 4 2 3
66 69 127 77 80 66 35 40 51 57 20 45 73 46 38 354 8 50 64 89 89 90 84 88 86 90 72 59 55 60 53 27 33 39 34 31 21 12 5 4 4 4 5 1 2 13 7 17 14 12 9 5 4 10
56 48 91 73 48 58 36 38 77 89 90 96 99 127 132 79 78 75 71 71 73 80 84 83 73 51 53 53 51 48 52 46 41 35 21 15 15 2 4 3 2 1 2 4 360 356 9 22 14 15 14 15 11 12
80 51 55 57 66 73 99 99 99 103 94 102 103 91 92 94 80 73 50 55 68 63 54 55 53 43 36 31 21 13 29 26 19 18 32 18 2 358 1 359 357 358 4 7 7 7 16 19 18 17 14 13 10 7
131 93 108 105 109 131 120 116 109 117 137 133 124 119 127 94 83 57 50 38 53 62 49 41 39 37 28 28 29 31 30 23 13 13 1 354 351 5 9 6 12 12 11 10 10 9 16 18 14 13 9 6 4 1
111 112 110 106 135 177 171 174 164 146 142 165 95 127 135 74 72 69 51 43 41 29 25 28 30 28 34 35 30 14 12 8 4 4 1 11 19 28 31 34 32 26 25 14 14 9 8 12 9 6 4 2 1 358